GW3225 Weather Reports


time (UTC)temp
C
wind
direction
speed
KPH
gust
KPH
rain 1hr
cm
rain 24hr
cm
rain mn
cm
humidity
%
barometer
mb
20260509075654 7 206 0.0 0.0 0.00 0.00 0.00 74 1008.8
20260509075151 7 206 0.0 0.0 0.00 0.00 0.00 72 1008.9
20260509074648 7 206 0.0 0.0 0.00 0.00 0.00 70 1009.0
20260509074144 8 206 0.0 0.0 0.00 0.00 0.00 68 1008.9
20260509073642 8 206 0.0 0.0 0.00 0.00 0.00 64 1008.9
20260509073138 8 206 0.0 0.0 0.00 0.00 0.00 64 1008.9
20260509072635 8 206 0.0 0.0 0.00 0.00 0.00 62 1008.8
20260509072131 8 206 0.0 0.0 0.00 0.00 0.00 60 1008.8
20260509071628 7 207 0.0 0.0 0.00 0.00 0.00 60 1009.0
20260509071125 7 207 0.0 0.0 0.00 0.00 0.00 58 1009.3
20260509070623 7 207 0.0 0.0 0.00 0.00 0.00 58 1009.3
20260509070119 7 207 0.0 0.0 0.00 0.00 0.00 59 1009.4
20260509065614 7 206 0.0 0.0 0.00 0.00 0.00 59 1009.1
20260509065110 7 207 0.0 0.0 0.00 0.00 0.00 59 1009.2
20260509064608 7 206 0.0 0.0 0.00 0.00 0.00 59 1009.3
20260509064106 7 206 0.0 0.0 0.00 0.00 0.00 59 1009.5
20260509063602 7 206 0.0 0.0 0.00 0.00 0.00 60 1009.4
20260509063059 7 206 0.0 0.0 0.00 0.00 0.00 58 1009.6
20260509062556 7 206 0.0 0.0 0.00 0.00 0.00 57 1009.7
20260509062054 7 206 0.0 0.0 0.00 0.00 0.00 56 1009.8
20260509061550 7 206 0.0 0.0 0.00 0.00 0.00 56 1009.9
20260509061047 7 206 0.0 0.0 0.00 0.00 0.00 55 1010.0
20260509060545 7 206 0.0 0.0 0.00 0.00 0.00 55 1009.9
20260509060040 6 206 0.0 0.0 0.00 0.00 0.00 55 1009.8
20260509055536 6 206 0.0 0.0 0.00 0.00 0.00 57 1010.2
20260509055032 6 206 0.0 0.0 0.00 0.00 0.00 57 1010.2
20260509054529 6 206 0.0 0.0 0.00 0.00 0.00 55 1010.1
20260509054027 6 206 0.0 0.0 0.00 0.00 0.00 56 1010.2
20260509053525 5 207 0.0 0.0 0.00 0.00 0.00 59 1010.2
20260509053016 5 207 0.0 0.0 0.00 0.00 0.00 60 1010.3
20260509052514 5 207 0.0 0.0 0.00 0.00 0.00 60 1010.3
20260509052012 5 207 0.0 0.0 0.00 0.00 0.00 59 1010.4
20260509051509 5 207 0.0 0.0 0.00 0.00 0.00 61 1010.5
20260509051006 5 207 0.0 0.0 0.00 0.00 0.00 62 1010.5
20260509050503 5 207 0.0 0.0 0.00 0.00 0.00 62 1010.6
20260509045959 5 207 0.0 0.0 0.00 0.00 0.00 63 1010.5
20260509045457 5 207 0.0 0.0 0.00 0.00 0.00 62 1010.7
20260509044954 5 207 0.0 0.0 0.00 0.00 0.00 62 1010.7
20260509044452 5 207 0.0 0.0 0.00 0.00 0.00 61 1010.7
20260509043948 5 207 0.0 0.0 0.00 0.00 0.00 60 1010.8
20260509043444 5 207 0.0 0.0 0.00 0.00 0.00 60 1010.7
20260509042939 5 207 0.0 0.0 0.00 0.00 0.00 61 1010.6
20260509042437 5 207 0.0 0.0 0.00 0.00 0.00 62 1011.0
20260509041933 5 207 0.0 0.0 0.00 0.00 0.00 65 1011.2
20260509041430 5 207 0.0 0.0 0.00 0.00 0.00 60 1011.0
20260509040928 5 207 0.0 0.0 0.00 0.00 0.00 61 1011.1
20260509040426 5 207 0.0 0.0 0.00 0.00 0.00 64 1010.8
20260509035922 5 207 0.0 0.0 0.00 0.10 0.10 62 1011.0
20260509035419 5 207 0.0 0.0 0.00 0.10 0.10 61 1011.1
20260509034916 6 207 0.0 0.0 0.00 0.10 0.10 58 1011.0
20260509034414 6 207 0.0 0.0 0.00 0.10 0.10 58 1010.8
20260509033911 6 206 0.0 0.0 0.00 0.10 0.10 55 1010.8
20260509033408 6 207 0.0 0.0 0.00 0.10 0.10 54 1011.1
20260509032904 6 206 0.0 0.0 0.00 0.10 0.10 54 1011.1
20260509032401 6 206 0.0 0.0 0.00 0.10 0.10 56 1011.1
20260509031859 6 206 0.0 0.0 0.00 0.10 0.10 53 1011.0
20260509031356 6 206 0.0 0.0 0.00 0.10 0.10 54 1011.2
20260509030854 6 206 0.0 0.0 0.00 0.10 0.10 52 1011.1
20260509030352 6 206 0.0 0.0 0.00 0.10 0.10 53 1011.0
20260509025849 6 206 0.0 0.0 0.00 0.10 0.10 52 1011.1
20260509025344 6 206 0.0 0.0 0.00 0.10 0.10 52 1011.0
20260509024839 6 206 0.0 0.0 0.00 0.10 0.10 52 1011.0
20260509024330 6 206 0.0 0.0 0.00 0.10 0.10 52 1011.2
20260509023827 6 206 0.0 0.0 0.00 0.10 0.10 52 1010.8
20260509023325 6 206 0.0 0.0 0.00 0.10 0.10 55 1011.3
20260509022821 6 207 0.0 0.0 0.00 0.10 0.10 55 1011.2
20260509022318 6 206 0.0 0.0 0.00 0.10 0.10 54 1011.2
20260509021815 6 206 0.0 0.0 0.00 0.10 0.10 54 1011.2
20260509021312 6 206 0.0 0.0 0.00 0.10 0.10 54 1011.3
20260509020810 6 206 0.0 0.0 0.00 0.10 0.10 52 1011.2
20260509020308 6 206 0.0 0.0 0.00 0.10 0.10 52 1011.3
20260509015805 6 206 0.0 0.0 0.00 0.10 0.10 51 1011.3
20260509015306 6 207 0.0 0.0 0.00 0.10 0.10 53 1011.3
20260509014759 6 207 0.0 0.0 0.00 0.10 0.10 52 1011.3
20260509014256 7 207 0.0 0.0 0.00 0.10 0.10 55 1011.3
20260509013753 7 207 0.0 0.0 0.00 0.10 0.10 55 1011.5
20260509013248 7 207 0.0 0.0 0.00 0.10 0.10 52 1011.2
20260509012745 7 207 0.0 0.0 0.00 0.10 0.10 52 1011.1
20260509012242 7 207 0.0 0.0 0.00 0.10 0.10 53 1011.3
20260509011739 7 207 0.0 0.0 0.00 0.10 0.10 51 1011.2
20260509011237 7 207 0.0 0.0 0.00 0.10 0.10 53 1010.8
20260509010735 7 207 0.0 0.0 0.00 0.10 0.10 53 1010.8
20260509010231 7 207 0.0 0.0 0.00 0.10 0.10 52 1010.7
20260509005728 7 207 0.0 0.0 0.00 0.10 0.10 52 1010.6
20260509005226 8 207 0.0 0.0 0.00 0.10 0.10 51 1010.7
20260509004720 8 207 0.0 0.0 0.00 0.10 0.10 52 1010.3
20260509004218 8 207 0.0 0.0 0.00 0.10 0.10 50 1010.5
20260509003716 8 207 0.0 0.0 0.00 0.10 0.10 49 1010.6
20260509003213 9 207 0.0 0.0 0.00 0.10 0.10 48 1010.4
20260509002710 10 207 0.0 0.0 0.00 0.10 0.10 42 1010.5
20260509002208 10 207 0.0 0.0 0.00 0.10 0.10 41 1010.4
20260509001705 10 207 0.0 0.0 0.00 0.10 0.10 40 1010.2
20260509001201 10 207 0.0 0.0 0.00 0.10 0.10 40 1010.4
20260509000659 11 206 0.0 0.0 0.00 0.10 0.10 38 1010.3
20260509000156 11 207 0.0 0.0 0.00 0.10 0.10 36 1010.4
20260508235653 11 206 0.0 0.0 0.00 0.10 0.10 34 1010.4
20260508235149 12 206 0.0 0.0 0.00 0.10 0.10 35 1010.4
20260508234646 12 207 4.8 4.8 0.00 0.10 0.10 31 1010.3
20260508234142 12 309 3.2 4.8 0.00 0.10 0.10 31 1010.3
20260508233637 12 204 1.6 3.2 0.00 0.10 0.10 30 1010.3
20260508233134 13 251 1.6 1.6 0.00 0.10 0.10 32 1010.0
20260508232631 13 258 3.2 4.8 0.00 0.10 0.10 31 1010.1
20260508232128 13 202 3.2 4.8 0.00 0.10 0.10 31 1010.0
20260508231625 12 306 3.2 4.8 0.00 0.10 0.10 34 1010.1
20260508231123 12 213 1.6 1.6 0.00 0.10 0.10 36 1010.1
20260508230618 12 196 3.2 3.2 0.00 0.10 0.10 36 1010.0
20260508230115 12 212 0.0 1.6 0.00 0.10 0.10 37 1010.2
20260508225613 13 193 0.0 1.6 0.00 0.10 0.10 37 1009.9
20260508225109 13 279 4.8 6.4 0.00 0.10 0.10 37 1009.9
20260508224607 13 200 0.0 0.0 0.00 0.10 0.10 37 1009.9
20260508224104 13 202 1.6 1.6 0.00 0.10 0.10 39 1010.0
20260508223602 13 224 1.6 3.2 0.00 0.10 0.10 39 1010.0
20260508223059 13 269 4.8 4.8 0.00 0.10 0.10 36 1010.1
20260508222556 13 212 1.6 1.6 0.00 0.10 0.10 36 1010.1
20260508222053 13 196 0.0 1.6 0.00 0.10 0.10 38 1010.0
20260508221549 13 197 0.0 0.0 0.00 0.10 0.10 36 1010.0
20260508221045 13 221 0.0 1.6 0.00 0.10 0.10 38 1009.9
20260508220542 13 330 1.6 3.2 0.00 0.10 0.10 39 1009.9
20260508220038 15 250 6.4 6.4 0.00 0.10 0.10 37 1010.1
20260508215535 15 205 1.6 1.6 0.00 0.10 0.10 36 1009.9
20260508215032 14 200 0.0 0.0 0.00 0.10 0.10 37 1010.0
20260508214530 14 199 0.0 0.0 0.00 0.10 0.10 36 1010.0
20260508214026 14 197 0.0 1.6 0.00 0.10 0.10 39 1010.0
20260508213523 14 214 1.6 3.2 0.00 0.10 0.10 40 1010.0
20260508213019 13 198 0.0 0.0 0.00 0.10 0.10 37 1010.2
20260508212515 15 209 0.0 1.6 0.00 0.10 0.10 41 1010.0
20260508212011 13 203 0.0 0.0 0.00 0.10 0.10 39 1009.9
20260508211502 12 282 1.6 3.2 0.00 0.10 0.10 41 1010.2
20260508210958 13 199 1.6 3.2 0.00 0.10 0.10 40 1010.2
20260508210455 13 189 1.6 3.2 0.00 0.10 0.10 40 1010.2
20260508205951 13 223 3.2 3.2 0.00 0.10 0.10 40 1010.1
20260508205449 13 207 1.6 1.6 0.00 0.10 0.10 41 1010.1
20260508204945 14 254 1.6 1.6 0.00 0.10 0.10 37 1010.3
20260508204443 13 202 0.0 1.6 0.00 0.10 0.10 38 1010.5
20260508203937 13 191 0.0 0.0 0.00 0.10 0.10 42 1010.5
20260508203434 12 213 1.6 1.6 0.00 0.10 0.10 42 1010.3
20260508202930 13 138 3.2 6.4 0.00 0.10 0.10 41 1010.6
20260508202428 13 230 1.6 3.2 0.00 0.10 0.10 40 1010.4
20260508201924 13 268 4.8 9.7 0.00 0.10 0.10 43 1010.5
20260508201421 13 331 3.2 3.2 0.00 0.10 0.10 41 1010.7
20260508200918 13 240 3.2 3.2 0.00 0.10 0.10 42 1010.7
20260508200414 13 233 3.2 3.2 0.00 0.10 0.10 40 1011.0
20260508195904 13 156 1.6 3.2 0.00 0.10 0.10 42 1011.1
20260508195401 12 316 6.4 6.4 0.00 0.10 0.10 46 1011.1
20260508194857 12 204 3.2 4.8 0.00 0.10 0.10 44 1011.0
20260508194354 12 203 1.6 1.6 0.00 0.10 0.10 46 1011.1
20260508193851 13 159 1.6 1.6 0.00 0.10 0.10 43 1011.0
20260508193348 12 314 8.0 12.9 0.00 0.10 0.10 44 1011.3
20260508192844 11 243 3.2 4.8 0.00 0.10 0.10 49 1011.3
20260508192341 12 211 3.2 3.2 0.00 0.10 0.10 45 1011.4
20260508191838 11 226 1.6 1.6 0.00 0.10 0.10 47 1011.3
20260508191336 12 214 1.6 3.2 0.00 0.10 0.10 43 1011.6
20260508190833 12 265 1.6 3.2 0.00 0.10 0.10 49 1011.6
20260508190329 12 188 3.2 4.8 0.00 0.10 0.10 47 1011.6
20260508185826 12 203 0.0 0.0 0.00 0.10 0.10 46 1011.6
20260508185323 11 240 3.2 3.2 0.00 0.10 0.10 49 1011.5
20260508184820 12 251 4.8 4.8 0.00 0.10 0.10 48 1011.6
20260508184318 11 201 3.2 6.4 0.00 0.10 0.10 52 1011.7
20260508183814 11 242 3.2 4.8 0.00 0.10 0.10 51 1011.7
20260508183311 11 202 1.6 1.6 0.00 0.10 0.10 52 1011.8
20260508182806 11 220 1.6 1.6 0.00 0.10 0.10 52 1011.7
20260508182306 12 201 1.6 3.2 0.00 0.10 0.10 50 1011.8
20260508181753 11 189 0.0 1.6 0.00 0.10 0.10 55 1012.0
20260508181250 10 306 4.8 6.4 0.00 0.10 0.10 57 1011.8
20260508180747 10 199 1.6 3.2 0.00 0.10 0.10 60 1012.0
20260508180244 10 253 3.2 3.2 0.00 0.10 0.10 60 1011.9
20260508175741 10 252 1.6 3.2 0.00 0.10 0.10 57 1012.0
20260508175237 10 197 0.0 1.6 0.00 0.10 0.10 58 1011.9
20260508174735 11 179 3.2 3.2 0.00 0.10 0.10 59 1012.0
20260508174232 11 42 1.6 3.2 0.00 0.10 0.10 57 1011.9
20260508173728 10 189 1.6 3.2 0.00 0.10 0.10 60 1012.2
20260508173225 11 276 6.4 9.7 0.00 0.10 0.10 61 1012.2
20260508172722 11 201 1.6 1.6 0.00 0.10 0.10 62 1012.1
20260508172218 11 213 3.2 3.2 0.00 0.10 0.10 64 1012.5
20260508171715 11 176 1.6 3.2 0.00 0.10 0.10 66 1012.4
20260508171211 10 197 1.6 3.2 0.00 0.10 0.10 67 1012.6
20260508170708 9 196 1.6 3.2 0.00 0.10 0.10 66 1012.4
20260508170206 9 262 3.2 3.2 0.00 0.10 0.10 70 1012.5
20260508165703 10 295 4.8 11.3 0.00 0.10 0.10 69 1012.8
20260508165200 10 329 4.8 6.4 0.00 0.10 0.10 70 1012.4
20260508164656 9 210 0.0 1.6 0.00 0.10 0.10 72 1012.6
20260508164153 8 245 1.6 3.2 0.00 0.10 0.10 71 1012.8
20260508163651 8 281 3.2 4.8 0.00 0.10 0.10 74 1012.7
20260508163148 8 237 1.6 3.2 0.00 0.10 0.10 75 1012.7
20260508162643 8 169 1.6 3.2 0.00 0.10 0.10 73 1012.7
20260508162141 8 202 1.6 1.6 0.00 0.10 0.10 73 1012.8
20260508161638 8 154 6.4 12.9 0.00 0.10 0.10 73 1012.8
20260508161135 8 164 1.6 1.6 0.00 0.10 0.10 76 1013.0
20260508160633 8 193 3.2 3.2 0.00 0.10 0.10 75 1012.9
20260508160131 7 239 4.8 6.4 0.00 0.10 0.10 77 1012.8
20260508155628 7 204 1.6 1.6 0.00 0.10 0.10 78 1013.0
20260508155124 6 197 0.0 0.0 0.00 0.10 0.10 80 1012.8
20260508154621 6 202 0.0 0.0 0.00 0.10 0.10 78 1013.0
20260508154118 7 249 3.2 4.8 0.00 0.10 0.10 79 1013.1
20260508153615 6 217 6.4 9.7 0.00 0.10 0.10 79 1013.1
20260508153112 6 207 3.2 3.2 0.00 0.10 0.10 80 1013.1
20260508152609 6 234 1.6 1.6 0.00 0.10 0.10 83 1012.9
20260508152104 7 200 3.2 4.8 0.00 0.10 0.10 85 1013.0
20260508151601 6 223 1.6 1.6 0.00 0.10 0.10 84 1013.2
20260508151058 6 163 1.6 1.6 0.00 0.10 0.10 86 1013.1
20260508150555 5 204 0.0 0.0 0.00 0.10 0.10 88 1013.1
20260508150051 5 178 0.0 0.0 0.00 0.10 0.10 88 1013.1
20260508145548 5 187 0.0 0.0 0.00 0.10 0.10 88 1013.0
20260508145044 5 215 0.0 1.6 0.00 0.10 0.10 87 1013.2
20260508144542 5 210 0.0 1.6 0.00 0.10 0.10 87 1013.1
20260508144039 5 193 0.0 0.0 0.00 0.10 0.10 88 1013.1
20260508143537 5 196 0.0 0.0 0.00 0.10 0.10 88 1013.0
20260508143033 5 201 0.0 0.0 0.00 0.10 0.10 89 1013.0
20260508142530 4 199 0.0 0.0 0.00 0.10 0.10 88 1013.0
20260508142026 4 193 0.0 0.0 0.00 0.10 0.10 88 1012.8
20260508141517 5 214 1.6 1.6 0.00 0.10 0.10 87 1013.1
20260508141015 5 222 3.2 3.2 0.00 0.10 0.10 89 1012.7
20260508140512 5 197 0.0 1.6 0.00 0.10 0.10 91 1012.5
20260508140008 5 185 0.0 0.0 0.00 0.10 0.10 91 1012.8
20260508135504 4 189 0.0 0.0 0.00 0.10 0.10 92 1012.6
20260508135001 4 197 0.0 0.0 0.00 0.10 0.10 91 1012.4
20260508134457 3 195 0.0 1.6 0.00 0.10 0.10 92 1012.6
20260508133954 3 186 0.0 0.0 0.00 0.10 0.10 93 1012.5
20260508133451 3 173 1.6 1.6 0.00 0.10 0.10 92 1012.9
20260508132948 3 205 0.0 0.0 0.00 0.10 0.10 92 1013.0
20260508132446 3 192 0.0 0.0 0.00 0.10 0.10 92 1012.8
20260508131942 3 202 1.6 1.6 0.00 0.10 0.10 92 1012.9
20260508131438 3 201 0.0 0.0 0.00 0.10 0.10 92 1012.9
20260508130935 3 213 0.0 1.6 0.13 0.10 0.10 92 1013.0
20260508130432 3 302 1.6 4.8 0.13 0.10 0.10 92 1013.3
20260508125927 3 216 1.6 1.6 0.18 0.08 0.08 92 1013.2
20260508125424 3 201 0.0 0.0 0.18 0.08 0.08 91 1012.9
20260508124922 3 211 3.2 4.8 0.13 0.05 0.05 90 1012.9
20260508124420 3 198 1.6 1.6 0.13 0.05 0.05 90 1012.8
20260508123917 3 204 0.0 1.6 0.00 0.03 0.03 89 1012.8
20260508123416 3 210 1.6 1.6 0.18 0.03 0.03 90 1012.8
20260508122911 4 194 4.8 6.4 0.18 0.03 0.03 90 1012.9
20260508122409 4 230 3.2 4.8 0.00 0.00 0.00 89 1012.7
20260508121906 4 306 3.2 3.2 0.00 0.00 0.00 88 1012.5
20260508121404 4 203 1.6 1.6 0.00 0.00 0.00 88 1012.7
20260508120901 4 255 1.6 1.6 0.00 0.00 0.00 87 1012.4
20260508120359 4 204 1.6 1.6 0.00 0.00 0.00 86 1012.0
20260508115856 4 169 0.0 1.6 0.00 0.00 0.00 87 1012.2
20260508115354 4 224 1.6 3.2 0.00 0.00 0.00 86 1012.0
20260508114850 4 184 0.0 0.0 0.00 0.00 0.00 86 1012.1
20260508114347 4 183 0.0 0.0 0.00 0.00 0.00 86 1011.8
20260508113844 5 193 0.0 0.0 0.00 0.00 0.00 85 1011.9
20260508113342 5 179 1.6 3.2 0.00 0.00 0.00 85 1011.8
20260508112838 5 168 0.0 1.6 0.00 0.00 0.00 84 1011.9
20260508112336 5 186 0.0 0.0 0.00 0.00 0.00 83 1011.7
20260508111831 5 191 0.0 0.0 0.00 0.00 0.00 83 1011.6
20260508111323 5 184 0.0 0.0 0.00 0.00 0.00 83 1011.8
20260508110820 5 200 0.0 0.0 0.00 0.00 0.00 82 1011.4
20260508110318 5 182 1.6 1.6 0.00 0.00 0.00 82 1011.3
20260508105817 5 169 0.0 1.6 0.00 0.00 0.00 83 1011.1
20260508105314 5 199 3.2 3.2 0.00 0.00 0.00 84 1011.2
20260508104811 5 182 0.0 0.0 0.00 0.00 0.00 84 1010.8
20260508104308 5 177 0.0 0.0 0.00 0.00 0.00 84 1011.1
20260508103805 5 180 0.0 1.6 0.00 0.00 0.00 84 1011.0
20260508103302 4 181 0.0 0.0 0.00 0.00 0.00 85 1011.3
20260508102800 4 177 0.0 1.6 0.00 0.00 0.00 86 1011.1
20260508102258 4 178 0.0 1.6 0.00 0.00 0.00 87 1011.0
20260508101755 4 177 0.0 0.0 0.00 0.00 0.00 88 1011.0
20260508101252 5 183 0.0 0.0 0.00 0.00 0.00 87 1011.0
20260508100749 5 184 0.0 0.0 0.00 0.00 0.00 86 1011.1
20260508100248 5 183 0.0 0.0 0.00 0.00 0.00 87 1011.1
20260508095743 5 183 0.0 0.0 0.00 0.00 0.00 86 1011.4
20260508095241 5 194 0.0 0.0 0.00 0.00 0.00 86 1011.3
20260508094737 5 189 0.0 0.0 0.00 0.00 0.00 87 1011.2
20260508094235 5 182 0.0 0.0 0.00 0.00 0.00 87 1011.4
20260508093732 5 190 3.2 4.8 0.00 0.00 0.00 88 1011.5
20260508093230 5 178 0.0 0.0 0.00 0.00 0.00 89 1011.6
20260508092726 5 193 0.0 0.0 0.00 0.00 0.00 89 1011.6
20260508092225 5 181 0.0 0.0 0.00 0.00 0.00 90 1011.7
20260508091722 4 169 1.6 1.6 0.00 0.00 0.00 89 1011.5
20260508091219 4 177 0.0 0.0 0.00 0.00 0.00 90 1011.4
20260508090717 4 199 0.0 1.6 0.00 0.00 0.00 90 1011.7
20260508090214 4 198 1.6 1.6 0.00 0.00 0.00 90 1011.7
20260508085710 4 183 0.0 0.0 0.00 0.00 0.00 90 1011.5
20260508085207 4 181 0.0 0.0 0.00 0.00 0.00 90 1011.3
20260508084703 4 192 0.0 0.0 0.00 0.00 0.00 90 1011.6
20260508084201 4 178 0.0 0.0 0.00 0.00 0.00 90 1011.4
20260508083658 4 184 0.0 0.0 0.00 0.00 0.00 90 1011.4
20260508083155 4 180 0.0 0.0 0.00 0.00 0.00 90 1011.4
20260508082650 4 186 0.0 0.0 0.00 0.00 0.00 91 1011.4
20260508082148 4 183 1.6 1.6 0.00 0.00 0.00 91 1011.5
20260508081645 4 133 0.0 1.6 0.00 0.00 0.00 91 1011.4
20260508081141 3 187 0.0 0.0 0.00 0.00 0.00 91 1011.3
20260508080638 3 191 0.0 1.6 0.00 0.00 0.00 92 1011.3
20260508080137 3 176 0.0 0.0 0.00 0.00 0.00 92 1011.3